Windsor Locks, CT

12:57 PM EDT on June 22, 2017 (GMT -0400)
Bradley International

Weather History for KBDL - March, 2013

Change the Weather History Date:

Tuesday, March 19, 2013

  Actual Average Record
Temperature  
Mean Temperature 32 °F 39 °F  
Max Temperature 35 °F 49 °F 79 °F (2012)
Min Temperature 29 °F 29 °F -6 °F (1967)
Degree Days  
Heating Degree Days 33 26  
Month to date heating degree days 541 556  
Since 1 July heating degree days 4693 4994  
Cooling Degree Days 0 0  
Month to date cooling degree days 0 0  
Year to date cooling degree days 0 0  
Moisture  
Dew Point 30 °F    
Average Humidity 96    
Maximum Humidity 100    
Minimum Humidity 92    
Precipitation  
Precipitation 0.53 in 0.12 in 1.49 in (1956)
Month to date precipitation 2.33 2.13  
Year to date precipitation 7.84 8.25  
Snow  
Snow 2.00 in 0.10 in 14.00 in (1956)
Month to date snowfall 9.8 4.5  
Since 1 July snowfall 56.9 37.2  
Snow Depth 4.00 in    
Sea Level Pressure  
Sea Level Pressure 29.83 in    
Wind  
Wind Speed 10 mph (North)    
Max Wind Speed 21 mph    
Max Gust Speed 25 mph    
Visibility 3 miles    
Events Fog , Rain , Snow    
T = Trace of Precipitation, MM = Missing Value Source: NWS Daily Summary

Daily Weather History Graph

Daily Weather History Graph

Search for Another Location

Airport or City:

Trip Planner

Search our weather history database for the weather conditions in past years. The results will help you decide how hot, cold, wet, or windy it might be!

Date:

Astronomy

Mar. 19, 2013 Rise Set
Actual Time 6:55 AM EDT 7:02 PM EDT
Civil Twilight 6:27 AM EDT 7:29 PM EDT
Nautical Twilight 5:55 AM EDT 8:02 PM EDT
Astronomical Twilight 5:21 AM EDT 8:35 PM EDT
Moon 11:37 AM EDT (3/19) 1:52 AM EDT (3/19)
Length of Visible Light 13h 02m
Length of Day
12h 06m
Waxing Crescent, 49% of the Moon is Illuminated
Mar 19
Waxing Crescent
Mar 19
First Quarter
Mar 27
Full
Apr 3
Last Quarter
Apr 10
New

Hourly Weather History & Observations

Time (EDT) Temp. Windchill Dew Point Humidity Pressure Visibility Wind Dir Wind Speed Gust Speed Precip Events Conditions
12:27 AM 28.4 °F 21.2 °F 26.6 °F 93% 30.13 in 0.8 mi NE 6.9 mph - 0.07 in Snow Light Snow
12:51 AM 28.9 °F 21.9 °F 28.0 °F 96% 30.12 in 0.8 mi NNE 6.9 mph - 0.13 in Snow Light Snow
1:31 AM 28.4 °F 21.2 °F 26.6 °F 93% 30.08 in 1.5 mi NNE 6.9 mph - 0.08 in Snow Light Snow
1:51 AM 28.9 °F 21.9 °F 27.0 °F 92% 30.08 in 1.5 mi NNE 6.9 mph - 0.10 in Snow Light Snow
2:34 AM 28.4 °F 19.7 °F 26.6 °F 93% 30.04 in 1.5 mi NNE 9.2 mph - 0.03 in Snow Light Snow
2:51 AM 28.9 °F 19.8 °F 27.0 °F 92% 30.03 in 1.5 mi NNE 10.4 mph - 0.04 in Snow Light Snow
3:39 AM 28.4 °F 19.1 °F 26.6 °F 93% 30.00 in 1.5 mi NNE 10.4 mph - 0.05 in Rain Light Freezing Rain
3:51 AM 28.9 °F 19.8 °F 27.0 °F 92% 30.01 in 5.0 mi North 10.4 mph - 0.06 in Rain Light Freezing Rain
3:59 AM 28.4 °F 20.4 °F 26.6 °F 93% 30.00 in 3.0 mi NNE 8.1 mph - 0.01 in Snow Light Snow
4:11 AM 28.4 °F 19.7 °F 26.6 °F 93% 29.99 in 2.5 mi NNE 9.2 mph - 0.01 in Snow Light Snow
4:22 AM 28.4 °F 19.7 °F 26.6 °F 93% 29.98 in 1.8 mi North 9.2 mph - 0.03 in Snow Light Snow
4:44 AM 28.4 °F 19.1 °F 26.6 °F 93% 29.97 in 1.5 mi NNE 10.4 mph - 0.05 in Snow Light Snow
4:51 AM 28.9 °F 19.2 °F 27.0 °F 92% 29.97 in 2.0 mi North 11.5 mph - 0.05 in Snow Light Snow
5:10 AM 28.4 °F 19.1 °F 26.6 °F 93% 29.97 in 1.5 mi NNE 10.4 mph - 0.02 in   Light Ice Pellets
5:12 AM 28.4 °F 19.7 °F 26.6 °F 93% 29.97 in 1.5 mi NNE 9.2 mph - 0.02 in   Light Ice Pellets
5:41 AM 28.4 °F 19.1 °F 26.6 °F 93% 29.95 in 2.0 mi North 10.4 mph - 0.03 in   Light Ice Pellets
5:51 AM 28.9 °F 19.2 °F 27.0 °F 92% 29.95 in 2.0 mi North 11.5 mph - 0.03 in   Light Freezing Drizzle
6:07 AM 28.4 °F 19.7 °F 26.6 °F 93% 29.93 in 2.0 mi NNE 9.2 mph - 0.01 in   Light Ice Pellets
6:24 AM 28.4 °F 19.7 °F 26.6 °F 93% 29.93 in 2.0 mi North 9.2 mph - 0.01 in Rain Light Freezing Rain
6:49 AM 30.2 °F 20.8 °F 28.4 °F 93% 29.91 in 3.0 mi NNE 11.5 mph - 0.02 in   Light Freezing Drizzle
6:51 AM 30.0 °F 21.1 °F 28.0 °F 92% 29.92 in 3.0 mi NNE 10.4 mph - 0.02 in   Light Freezing Drizzle
7:51 AM 30.0 °F 22.4 °F 28.0 °F 92% 29.89 in 7.0 mi North 8.1 mph - 0.00 in   Light Freezing Drizzle
8:51 AM 30.9 °F 21.7 °F 28.9 °F 92% 29.87 in 5.0 mi North 11.5 mph - 0.01 in   Light Freezing Drizzle
9:20 AM 32.0 °F 23.6 °F 30.2 °F 93% 29.85 in 2.5 mi North 10.4 mph - 0.01 in Rain Light Freezing Rain
9:51 AM 32.0 °F 23.0 °F 30.0 °F 92% 29.85 in 1.8 mi North 11.5 mph - 0.01 in Rain Light Freezing Rain
10:04 AM 32.0 °F 22.5 °F 30.2 °F 93% 29.81 in 1.8 mi NNE 12.7 mph - 0.00 in Rain Light Freezing Rain
10:19 AM 33.8 °F 25.8 °F 30.2 °F 87% 29.81 in 1.8 mi North 10.4 mph - 0.01 in Rain Light Rain
10:51 AM 33.1 °F 25.5 °F 32.0 °F 96% 29.80 in 1.8 mi North 9.2 mph - 0.02 in Rain Light Rain
11:45 AM 33.8 °F 25.8 °F 32.0 °F 93% 29.74 in 1.8 mi NNE 10.4 mph - 0.01 in Rain Light Rain
11:51 AM 34.0 °F 26.0 °F 32.0 °F 92% 29.75 in 1.8 mi North 10.4 mph - 0.01 in Rain Light Rain
12:08 PM 33.8 °F 25.8 °F 33.8 °F 100% 29.73 in 1.8 mi North 10.4 mph - 0.01 in Rain Light Rain
12:34 PM 33.8 °F 25.3 °F 33.8 °F 100% 29.76 in 2.0 mi NW 11.5 mph - 0.01 in Rain Light Rain
12:51 PM 33.1 °F 23.9 °F 32.0 °F 96% 29.77 in 1.0 mi NNW 12.7 mph - 0.01 in Snow Light Snow
1:03 PM 33.8 °F 25.8 °F 32.0 °F 93% 29.77 in 0.5 mi NNW 10.4 mph - 0.03 in Snow Light Snow
1:08 PM 33.8 °F 25.8 °F 32.0 °F 93% 29.77 in 0.5 mi NNW 10.4 mph - 0.04 in Fog , Snow Snow
1:49 PM 33.8 °F 25.3 °F 32.0 °F 93% 29.74 in 1.2 mi North 11.5 mph - 0.13 in Snow Light Snow
1:51 PM 34.0 °F 25.5 °F 32.0 °F 92% 29.75 in 1.2 mi North 11.5 mph - 0.13 in Snow Light Snow
2:00 PM 33.8 °F 23.9 °F 32.0 °F 93% 29.73 in 1.2 mi North 15.0 mph - 0.00 in Snow Light Snow
2:16 PM 33.8 °F 22.2 °F 32.0 °F 93% 29.67 in 2.0 mi NE 20.7 mph - 0.00 in Rain , Snow Light Snow
2:30 PM 33.8 °F 23.2 °F 32.0 °F 93% 29.66 in - North 17.3 mph - 0.00 in Rain Rain
2:43 PM 33.8 °F 24.3 °F 32.0 °F 93% 29.67 in - North 13.8 mph - 0.01 in Rain Rain
2:51 PM 34.0 °F 25.0 °F 32.0 °F 92% 29.68 in 7.0 mi North 12.7 mph - 0.01 in Rain , Snow Light Rain
3:39 PM 35.6 °F 28.6 °F 32.0 °F 87% 29.67 in 10.0 mi North 9.2 mph - 0.00 in   Light Drizzle
3:51 PM 35.1 °F 28.6 °F 32.0 °F 89% 29.67 in 10.0 mi North 8.1 mph - 0.00 in   Overcast
4:20 PM 35.6 °F 28.0 °F 32.0 °F 87% 29.66 in 10.0 mi North 10.4 mph - 0.00 in   Light Drizzle
4:51 PM 35.1 °F 28.6 °F 32.0 °F 89% 29.68 in 4.0 mi NNW 8.1 mph - 0.00 in   Light Drizzle
5:10 PM 35.6 °F 28.6 °F 32.0 °F 87% 29.67 in 6.0 mi North 9.2 mph - 0.00 in   Light Drizzle
5:51 PM 34.0 °F 26.0 °F 32.0 °F 92% 29.68 in 5.0 mi NNW 10.4 mph - 0.00 in Rain , Snow Light Rain
6:26 PM 33.8 °F 27.0 °F 32.0 °F 93% 29.68 in 5.0 mi NNW 8.1 mph - 0.00 in Rain Light Rain
6:51 PM 34.0 °F 26.6 °F 32.0 °F 92% 29.70 in 6.0 mi NW 9.2 mph - 0.00 in   Light Drizzle
7:43 PM 33.8 °F 28.6 °F 32.0 °F 93% 29.71 in 8.0 mi NW 5.8 mph - 0.01 in Rain Light Rain
7:51 PM 33.8 °F 28.6 °F 32.0 °F 93% 29.71 in 9.0 mi NNW 5.8 mph - N/A   Light Drizzle
8:51 PM 33.1 °F - 32.0 °F 96% 29.73 in 10.0 mi Calm Calm - 0.00 in   Mostly Cloudy
9:46 PM 33.8 °F 28.6 °F 32.0 °F 93% 29.73 in 2.0 mi WNW 5.8 mph - 0.00 in Rain , Snow Light Snow
9:51 PM 33.1 °F 27.7 °F 30.9 °F 92% 29.74 in 2.0 mi WNW 5.8 mph - 0.00 in Rain , Snow Light Snow
10:01 PM 33.8 °F 27.0 °F 32.0 °F 93% 29.74 in 1.5 mi West 8.1 mph - 0.00 in Snow Light Snow
10:10 PM 33.8 °F 27.0 °F 32.0 °F 93% 29.74 in 0.8 mi West 8.1 mph - 0.02 in Snow Light Snow
10:16 PM 33.8 °F 27.7 °F 32.0 °F 93% 29.74 in 1.0 mi West 6.9 mph - 0.03 in Snow Light Snow
10:23 PM 33.8 °F 29.6 °F 32.0 °F 93% 29.74 in 2.0 mi WNW 4.6 mph - 0.03 in Snow Light Snow
10:34 PM 33.8 °F 30.8 °F 32.0 °F 93% 29.74 in 3.0 mi NW 3.5 mph - 0.04 in Snow Light Snow
10:51 PM 33.1 °F 26.1 °F 30.9 °F 92% 29.75 in 2.5 mi NNW 8.1 mph - 0.04 in Snow Light Snow
11:00 PM 33.8 °F 29.6 °F 30.2 °F 87% 29.74 in 3.0 mi North 4.6 mph - 0.00 in Snow Light Snow
11:08 PM 32.0 °F 28.7 °F 30.2 °F 93% 29.73 in 10.0 mi NNE 3.5 mph - 0.00 in Snow Light Snow
11:51 PM 32.0 °F 24.8 °F 25.0 °F 75% 29.75 in 10.0 mi NNW 8.1 mph 21.9 mph 0.00 in   Scattered Clouds